[Iaude] MPEC J75: 2024 JR1 [a=1.46,e=0.46,i=5.8,H=27.7]
    mpec at cfa.harvard.edu 
    mpec at cfa.harvard.edu
       
    Sun May  5 05:02:07 EDT 2024
    
    
  
M.P.E.C. 2024-J75                                   Issued 2024 May 5, 08:59 UT
     The Minor Planet Electronic Circulars contain information on unusual
         minor planets, routine data on comets and natural satellites,
         and occasional editorial announcements.  They are published
    on behalf of Division F of the International Astronomical Union by the
          Minor Planet Center, Smithsonian Astrophysical Observatory,
                          Cambridge, MA 02138, U.S.A.
			  
             Prepared using the Tamkin Foundation Computer Network
                              MPC at CFA.HARVARD.EDU
            URL https://www.minorplanetcenter.net/    ISSN 1523-6714
                                    2024 JR1                                    
Observations:
     K24J01R*1C2024 05 04.33863214 28 30.421+04 49 17.69         19.87GVEJ075G96
     K24J01R 1C2024 05 04.34385614 28 28.535+04 49 54.55         20.12GVEJ075G96
     K24J01R 1C2024 05 04.34907714 28 26.670+04 50 30.41         20.18GVEJ075G96
     K24J01R 1C2024 05 04.35430514 28 24.805+04 51 07.16         19.80GVEJ075G96
     K24J01R  C2024 05 04.39764414 28 28.834+04 57 45.93         20.00wXEJ075F52
     K24J01R  C2024 05 04.40880014 28 24.466+04 59 08.45         20.36wXEJ075F52
     K24J01R KC2024 05 04.41876014 28 02.233+04 58 47.39         20.33GVEJ075I52
     K24J01R  C2024 05 04.41995014 28 20.055+05 00 31.59         20.28wXEJ075F52
     K24J01R 1C2024 05 04.42029614 28 01.722+04 58 58.37         19.67GVEJ075G96
     K24J01R 1C2024 05 04.42088414 28 01.470+04 59 03.01         19.86GVEJ075G96
     K24J01R KC2024 05 04.42145914 28 01.340+04 59 07.66         20.00GVEJ075I52
     K24J01R 1C2024 05 04.42301214 28 00.793+04 59 18.67         19.85GVEJ075G96
     K24J01R KC2024 05 04.42416114 28 00.394+04 59 27.13         19.82GVEJ075I52
     K24J01R KC2024 05 04.42687314 27 59.486+04 59 46.50         20.05GVEJ075I52
     K24J01R  C2024 05 04.43112214 28 15.590+05 01 55.31         20.07wXEJ075F52
     K24J01R 1C2024 05 04.44449814 27 53.669+05 01 55.31               VEJ075G96
     K24J01R 1C2024 05 04.44526414 27 53.428+05 02 01.86               VEJ075G96
     K24J01R 1C2024 05 04.44602614 27 53.204+05 02 07.12         20.02GVEJ075G96
     K24J01R KB2024 05 04.83398 14 26 44.23 +05 58 12.7          19.8 GXEJ075M45
     K24J01R KB2024 05 04.83863 14 26 42.16 +05 59 01.7          20.1 GXEJ075M45
     K24J01R KB2024 05 04.84309 14 26 40.13 +05 59 48.6          20.0 GXEJ075M45
     K24J01R KB2024 05 04.85496114 26 45.16 +06 02 00.3          19.6 GXEJ075958
     K24J01R KB2024 05 04.85880014 26 43.52 +06 02 43.0          19.2 GXEJ075958
     K24J01R KB2024 05 04.86259714 26 41.95 +06 03 24.2          19.3 GXEJ075958
     K24J01R 1C2024 05 04.86665 14 26 33.77 +06 03 21.6          20.2 VXEJ075033
     K24J01R 1C2024 05 04.86703 14 26 33.61 +06 03 25.7          20.8 VXEJ075033
     K24J01R 1C2024 05 04.86741 14 26 33.44 +06 03 29.9          20.6 VXEJ075033
     K24J01R 1C2024 05 04.86778 14 26 33.26 +06 03 33.9          20.2 VXEJ075033
     K24J01R KC2024 05 04.89696014 26 20.04 +06 09 30.5          19.7 GXEJ075595
     K24J01R KC2024 05 04.90008014 26 18.52 +06 10 10.2          19.4 GVEJ075L01
     K24J01R KC2024 05 04.90205414 26 17.56 +06 10 32.1          19.6 GVEJ075L01
     K24J01R KC2024 05 04.90452314 26 16.36 +06 10 59.6          19.4 GVEJ075L01
     K24J01R KC2024 05 04.90788 14 26 12.14 +06 11 09.1          19.0 GXEJ075G02
     K24J01R KC2024 05 04.90816714 26 14.64 +06 11 36.3          19.8 GXEJ075595
     K24J01R KC2024 05 04.91836 14 26 07.04 +06 13 06.5          19.0 GXEJ075G02
     K24J01R KC2024 05 04.92283614 26 07.39 +06 14 22.0          19.5 GXEJ075595
     K24J01R KC2024 05 05.03269114 25 17.462+06 35 29.47         19.7 GVEJ075J95
     K24J01R KC2024 05 05.03788114 25 14.743+06 36 34.20         19.1 GVEJ075J95
     K24J01R KC2024 05 05.04186914 25 12.614+06 37 24.92         19.5 GVEJ075J95
     K24J01R 0B2024 05 05.04811 14 24 55.054+06 50 26.92         19.4 VZEJ075M49
     K24J01R 0B2024 05 05.05185 14 24 52.942+06 51 14.94         19.5 VZEJ075M49
     K24J01R 0B2024 05 05.05546 14 24 50.880+06 52 01.78         19.5 VZEJ075M49
Observer details:
033 Karl Schwarzschild Observatory, Tautenburg.  Observers S. Melnikov, C.
    Hogner, F. Ludwig, M. Hartmann, B. Stecklum.  Measurer B. Stecklum.
    1.34-m f/3 Schmidt + CCD.
595 Farra d'Isonzo.  Observers G. Panterotto, E. Pettarin.  Measurer E.
    Pettarin.  0.61-m f/4.5 reflector + CCD.
958 Observatoire de Dax.  Observer P. Dupouy.  0.50-m f/4.5 Reflector + CMO.
F52 Pan-STARRS 2, Haleakala.  Observers J. Herman, T. Lowe, P. Minguez, A.
    Schultz, I. Smith.  Measurers K. Chambers, T. de Boer, J. Fairlamb, H.
    Gao, M. Huber, C.-C. Lin, E. Magnier, Y. Ramanjooloo, R. Wainscoat, R.
    Weryk.  1.8-m Ritchey-Chretien + CCD.
G02 KYSUCE Observatory, Kysucke Nove Mesto.  Observer M. Urbanik.  0.40-m
    f/6.8 Corrected Dall-Kirkham + CCD.
G96 Mt. Lemmon Survey.  Observer H. Groeller.  Measurers T. Beuden, V. F.
    Carvajal, D. Fay, J. B. Fazekas, D. C. Fuls, A. R. Gibbs, A. D. Grauer, H.
    Groeller, J. K. Hogan, R. A. Kowalski, S. M. Larson, G. J. Leonard, D.
    Rankin, R. L. Seaman, F. C. Shelly, K. W. Wierzchos.  1.5-m reflector +
    10K CCD.
I52 Steward Observatory, Mt. Lemmon Station.  Observer V. F. Carvajal.
    Measurers T. Beuden, V. F. Carvajal, D. Fay, J. B. Fazekas, D. C. Fuls, A.
    R. Gibbs, A. D. Grauer, H. Groeller, J. K. Hogan, R. A. Kowalski, S. M.
    Larson, G. J. Leonard, D. Rankin, R. L. Seaman, F. C. Shelly, K. W.
    Wierzchos.  1.0-m prime focus + CCD.
J95 Great Shefford.  Observer P. Birtwhistle.  0.41-m f/6.3 Schmidt-Cassegrain
    + CCD.
L01 Visnjan Observatory, Tican.  Observer K. Korlevic.  1.0-m f/2.9 reflector
    + CCD.
M45 Starhopper Observatory, Sfantu Gheorghe.  Observer F. Ursache.  0.41-m
    f/7.5 reflector + CMO.
M49 IAS Remote Observatory, Hakos.  Observers D. Husar, M. Junius.  Measurer
    D. Husar.  0.25-m f/4.5 reflector + CMO.
Orbital elements:
2024 JR1                                                 Earth MOID = 0.0015 AU
Epoch 2024 Mar. 31.0 TT = JDT 2460400.5                 Veres                   
M 310.95459              (2000.0)            P               Q                  
n   0.56082954     Peri.  250.69357     +0.46693481     +0.88120853             
a   1.4562931      Node    47.36896     -0.76901576     +0.44583942             
e   0.4555818      Incl.    5.75533     -0.43656230     +0.15715833             
P   1.76           H   27.72          G   0.15           U   7                  
Residuals in seconds of arc
240504 G96  0.1-  0.1-    240504 F52  0.1+  0.0     240504 595  0.1-  0.3-
240504 G96  0.3-  0.4+    240504 G96  0.1-  1.2-    240504 L01  0.1-  0.0
240504 G96  0.2-  0.2-    240504 G96  0.0   0.3-    240504 L01  0.1-  0.1-
240504 G96  0.1-  0.0     240504 G96  0.4+  0.7-    240504 L01  0.0   0.3-
240504 F52  0.1-  0.1+    240504 M45  0.3+  0.5+    240504 G02  0.6-  0.2+
240504 F52  0.0   0.0     240504 M45  0.4+  0.4+    240504 595  0.5+  0.3+
240504 I52  0.0   0.2-    240504 M45  0.2+  0.0     240504 G02  0.6-  0.1-
240504 F52  0.1+  0.0     240504 958  0.8-  0.3-    240504 595  0.6+  0.3+
240504 G96  0.2+  0.4-    240504 958  1.1-  0.8+    240505 J95  0.2-  0.1-
240504 G96  0.6-  0.1-    240504 958  0.3-  0.8+    240505 J95  0.3+  0.3-
240504 I52  0.4+  0.4+    240504 033  0.2+  0.2-    240505 J95  0.1+  0.3+
240504 G96  0.0   0.1+    240504 033  0.3+  0.2-    240505 M49  0.2-  0.3+
240504 I52  0.2-  0.1+    240504 033  0.2+  0.1-    240505 M49  0.0   0.2+
240504 I52  0.1-  0.3-    240504 033  0.0   0.1-    240505 M49  0.1-  0.5+
Ephemeris:
2024 JR1                 a,e,i = 1.46, 0.46, 6                   q = 0.7928
Date    TT    R. A. (2000) Decl.     Delta      r    Elong.  Phase     V
2024 04 05    14 32 43.4 -01 12 18   0.2574  1.2393   155.5    19.5    26.2
...
2024 04 20    14 35 42.7 -00 00 55   0.1300  1.1302   164.2    14.0    24.4
...
2024 04 28    14 34 58.0 +01 03 00   0.06777 1.0722   164.5    14.5    22.8
...
2024 05 04    14 29 39.3 +04 17 10   0.02256 1.0295   159.4    20.1    20.6
2024 05 05    14 25 37.2 +06 35 27   0.01512 1.0224   156.5    23.2    19.8
2024 05 06    14 13 36.4 +13 15 09   0.0077671.0155   148.7    31.1    18.5
...
2024 05 12    02 41 15.4 +02 19 04   0.03746 0.9746    18.0   161.4    32.0
...
2024 05 20    02 39 01.6 +00 56 50   0.09840 0.9239    25.4   152.0    31.3
...
2024 06 04    02 44 50.8 +02 10 00   0.2212  0.8462    36.2   134.9    30.3
M. P. C. Staff               (C) Copyright 2024 MPC           M.P.E.C. 2024-J75
    
    
More information about the Iaude
mailing list